Big Piney, WY

6:25 AM MDT on April 29, 2017 (GMT -0600)
Big Piney-Marbleton

Weather History for KBPI - October, 2013

Change the Weather History Date:

Saturday, October 26, 2013

  Actual Average Record
Temperature  
Mean Temperature 40 °F 34 °F  
Max Temperature 60 °F 51 °F 69 °F (1999)
Min Temperature 20 °F 18 °F 1 °F (2001)
Degree Days  
Heating Degree Days 25 31  
Month to date heating degree days 674 669  
Since 1 July heating degree days 1112 1420  
Cooling Degree Days 0 0  
Month to date cooling degree days 0 0  
Year to date cooling degree days 89 35  
Moisture  
Dew Point 20 °F    
Average Humidity 52    
Maximum Humidity 81    
Minimum Humidity 22    
Precipitation  
Precipitation 0.00 in 0.01 in 0.02 in (2004)
Month to date precipitation 0.32 0.48  
Year to date precipitation 4.15 5.92  
Sea Level Pressure  
Sea Level Pressure 30.29 in    
Wind  
Wind Speed 4 mph (North)    
Max Wind Speed 14 mph    
Max Gust Speed 15 mph    
Visibility 10 miles    
Events      
T = Trace of Precipitation, MM = Missing Value Source: NWS Daily Summary

Daily Weather History Graph

Daily Weather History Graph

Search for Another Location

Airport or City:

Trip Planner

Search our weather history database for the weather conditions in past years. The results will help you decide how hot, cold, wet, or windy it might be!

Date:

Astronomy

Oct. 26, 2013 Rise Set
Actual Time 7:47 AM MDT 6:20 PM MDT
Civil Twilight 7:18 AM MDT 6:49 PM MDT
Nautical Twilight 6:45 AM MDT 7:22 PM MDT
Astronomical Twilight 6:12 AM MDT 7:55 PM MDT
Moon No Moon Rise 2:06 PM MDT (10/26)
Length of Visible Light 11h 31m
Length of Day
10h 33m
Waning Gibbous, 52% of the Moon is Illuminated
Oct 26
Waning Gibbous
Oct 26
Last Quarter
Nov 3
New
Nov 9
First Quarter
Nov 17
Full

Hourly Weather History & Observations

Time (MDT) Temp. Windchill Dew Point Humidity Pressure Visibility Wind Dir Wind Speed Gust Speed Precip Events Conditions
12:53 AM 30.0 °F - 19.9 °F 66% 30.25 in 10.0 mi Calm Calm - N/A   Clear
1:53 AM 30.9 °F - 19.9 °F 64% 30.25 in 10.0 mi Calm Calm - N/A   Clear
2:53 AM 26.1 °F - 18.0 °F 71% 30.27 in 10.0 mi Calm Calm - N/A   Clear
3:53 AM 23.0 °F 18.4 °F 17.1 °F 78% 30.28 in 10.0 mi NNE 3.5 mph - N/A   Clear
4:53 AM 23.0 °F - 18.0 °F 81% 30.30 in 10.0 mi Calm Calm - N/A   Clear
5:53 AM 23.0 °F 14.7 °F 18.0 °F 81% 30.34 in 10.0 mi ENE 6.9 mph - N/A   Clear
6:53 AM 25.0 °F 17.1 °F 18.0 °F 75% 30.39 in 10.0 mi NE 6.9 mph - N/A   Clear
7:53 AM 21.0 °F 13.4 °F 16.0 °F 81% 30.43 in 10.0 mi NW 5.8 mph - N/A   Clear
8:53 AM 30.0 °F - 21.9 °F 72% 30.42 in 10.0 mi Calm Calm - N/A   Clear
9:53 AM 36.0 °F - 23.0 °F 59% 30.41 in 10.0 mi Calm Calm - N/A   Clear
10:53 AM 45.0 °F - 25.0 °F 46% 30.33 in 10.0 mi Calm Calm - N/A   Clear
11:53 AM 51.1 °F - 24.1 °F 35% 30.31 in 10.0 mi Calm Calm - N/A   Clear
12:53 PM 52.0 °F - 21.9 °F 31% 30.32 in 10.0 mi Calm Calm - N/A   Clear
1:53 PM 57.0 °F - 23.0 °F 27% 30.25 in 10.0 mi Calm Calm - N/A   Clear
2:53 PM 59.0 °F - 21.0 °F 23% 30.24 in 10.0 mi ENE 4.6 mph - N/A   Clear
3:53 PM 60.1 °F - 21.0 °F 22% 30.23 in 10.0 mi SSW 6.9 mph - N/A   Clear
4:53 PM 59.0 °F - 21.9 °F 24% 30.23 in 10.0 mi South 6.9 mph - N/A   Clear
5:53 PM 55.0 °F - 23.0 °F 29% 30.24 in 10.0 mi SSW 4.6 mph - N/A   Clear
6:53 PM 50.0 °F - 23.0 °F 35% 30.24 in 10.0 mi WNW 3.5 mph - N/A   Clear
7:53 PM 42.1 °F 35.7 °F 18.0 °F 38% 30.30 in 10.0 mi North 11.5 mph - N/A   Clear
8:53 PM 37.9 °F 30.5 °F 19.9 °F 48% 30.27 in 10.0 mi North 11.5 mph - N/A   Clear
9:53 PM 35.1 °F 26.9 °F 19.9 °F 54% 30.25 in 10.0 mi North 11.5 mph - N/A   Clear
10:53 PM 30.9 °F 22.8 °F 19.9 °F 64% 30.22 in 10.0 mi NNE 9.2 mph - N/A   Clear
11:53 PM 32.0 °F 28.7 °F 19.9 °F 61% 30.17 in 10.0 mi North 3.5 mph - N/A   Clear